カタログに戻る

COSMOS 862 DEB

LostHEO
NORAD 9895·DEBRIS·🇷🇺 Russia

打ち上げ Oct 22, 1976 から Plesetsk Cosmodrome

Loading…

次のパス (今後24時間)

TLE

古いSource: Space-Track

元期: Apr 10, 1979, 07:23 UTC

1 09895U 76105  M 79100.30766735  .00000869 +00000-0 +00000-0 0  9997
2 09895 065.8544 001.2865 7047681 309.9181 003.8665 02.00350332018174

AllMySatでCOSMOS 862 DEBをリアルタイム追跡

Download on the App Store